FW7665 Weather Reports


time (UTC)temp
F
wind
direction
speed
knots
gust
knots
rain 1hr
in
rain 24hr
in
rain mn
in
humidity
%
barometer
mb
20260506124510 25 0 0.0 0.0 0.01 0.47 0.09 89 1014.2
20260506123610 25 0 0.0 0.0 0.00 0.46 0.08 89 1014.2
20260506122710 25 0 0.0 0.0 0.00 0.46 0.08 88 1013.8
20260506121809 25 0 0.0 0.0 0.00 0.46 0.08 88 1013.8
20260506120909 25 0 0.0 0.0 0.00 0.46 0.08 88 1013.8
20260506120010 25 0 0.0 0.0 0.00 0.46 0.08 88 1013.8
20260506115410 25 0 0.0 0.0 0.00 0.46 0.08 88 1013.8
20260506114510 25 0 0.0 0.0 0.00 0.46 0.08 88 1013.8
20260506113630 25 0 0.0 0.0 0.00 0.46 0.08 88 1013.8
20260506112709 25 0 0.0 0.0 0.00 0.46 0.08 88 1013.7
20260506111831 25 0 0.0 0.0 0.00 0.46 0.08 88 1013.7
20260506110909 25 0 0.0 0.0 0.00 0.46 0.08 89 1013.7
20260506110009 25 0 0.0 0.0 0.00 0.46 0.08 89 1013.7
20260506105409 25 0 0.0 0.0 0.00 0.46 0.08 89 1013.7
20260506104509 25 0 0.0 0.0 0.00 0.46 0.08 89 1013.7
20260506103610 25 0 0.0 0.0 0.00 0.46 0.08 89 1013.7
20260506102710 25 0 0.0 0.0 0.00 0.46 0.08 88 1013.9
20260506101830 25 0 0.0 0.0 0.00 0.46 0.08 88 1013.9
20260506100930 25 0 0.0 0.0 0.00 0.46 0.08 88 1013.9
20260506095409 26 0 0.0 0.0 0.01 0.46 0.08 88 1013.8
20260506094509 26 0 0.0 0.0 0.02 0.46 0.08 88 1013.8
20260506093614 26 0 0.0 0.0 0.03 0.46 0.08 88 1013.8
20260506092709 26 0 0.0 0.0 0.03 0.46 0.08 88 1013.9
20260506091809 26 0 0.0 0.0 0.03 0.46 0.08 89 1013.9
20260506090909 26 0 0.0 0.0 0.03 0.46 0.08 89 1013.9
20260506090009 26 0 0.0 0.0 0.03 0.45 0.07 89 1013.9
20260506085409 26 0 0.0 0.0 0.03 0.45 0.07 89 1013.9
20260506084509 26 0 0.0 0.0 0.02 0.44 0.06 89 1013.9
20260506083609 26 0 0.0 0.0 0.01 0.43 0.05 89 1013.9
20260506082709 26 0 0.0 0.0 0.01 0.43 0.05 89 1014.1
20260506081809 26 0 0.0 0.0 0.02 0.43 0.05 89 1014.1
20260506080909 26 0 0.0 0.0 0.02 0.43 0.05 89 1014.1
20260506072710 26 0 0.0 0.0 0.03 0.42 0.04 89 1014.0
20260506071809 26 0 0.0 0.0 0.02 0.41 0.03 89 1014.0
20260506070910 26 0 0.0 0.0 0.02 0.41 0.03 89 1014.0
20260506061808 27 0 0.0 0.0 0.04 0.39 0.01 89 1012.9
20260506060931 27 0 0.0 0.0 0.05 0.39 0.01 89 1012.9
20260506050908 27 0 0.0 0.0 0.02 0.34 0.34 89 1012.9
20260506044529 27 0 0.0 0.0 0.01 0.33 0.33 89 1012.9
20260506043608 27 0 0.0 0.0 0.00 0.32 0.32 89 1012.9
20260506042729 27 0 0.0 0.0 0.01 0.32 0.32 89 1012.9
20260506041808 27 0 0.0 0.0 0.01 0.32 0.32 89 1012.9
20260506040908 27 0 0.0 0.0 0.02 0.32 0.32 88 1012.9
20260506040008 27 0 0.0 0.0 0.02 0.32 0.32 88 1012.9
20260506035429 28 0 0.0 0.0 0.03 0.32 0.32 88 1012.9
20260506034508 28 0 0.0 0.0 0.04 0.32 0.32 88 1012.9
20260506033609 28 0 0.0 0.0 0.05 0.32 0.32 88 1012.9
20260506032708 28 0 0.0 0.0 0.05 0.31 0.31 88 1012.0
20260506031808 28 0 0.0 0.0 0.05 0.31 0.31 88 1012.0
20260506030908 28 0 0.0 0.0 0.04 0.31 0.30 88 1012.0
20260506030008 28 121 0.0 1.7 0.05 0.32 0.30 88 1012.0
20260506025408 28 0 0.0 0.0 0.04 0.32 0.29 88 1012.0
20260506024508 29 0 0.0 0.0 0.03 0.35 0.28 87 1012.0
20260506023629 29 0 0.0 0.0 0.02 0.38 0.27 86 1012.0
20260506022708 30 0 0.0 0.0 0.01 0.41 0.26 87 1010.9
20260506021807 30 121 0.0 0.9 0.01 0.44 0.26 86 1010.9
20260506020929 30 121 0.0 0.9 0.02 0.44 0.26 86 1010.9
20260506020029 30 121 0.0 0.9 0.01 0.43 0.25 86 1010.9
20260506015408 30 121 0.0 0.9 0.02 0.43 0.25 86 1010.9
20260506014529 30 122 0.0 1.7 0.02 0.43 0.25 86 1010.9
20260506013607 31 123 0.0 0.9 0.03 0.43 0.25 87 1010.9
20260506012707 31 0 0.0 0.0 0.04 0.43 0.25 88 1010.7
20260506011807 32 0 0.0 0.0 0.05 0.43 0.25 88 1010.7
20260506010907 32 0 0.0 0.0 0.05 0.42 0.24 88 1010.7
20260506010028 32 0 0.0 0.0 0.06 0.42 0.24 88 1010.7
20260506005408 32 123 0.0 1.7 0.06 0.41 0.23 89 1010.7
20260506004528 32 123 0.0 0.9 0.08 0.41 0.23 89 1010.7
20260506003610 32 0 0.0 0.0 0.09 0.40 0.22 89 1010.7
20260506002707 32 0 0.0 0.0 0.10 0.39 0.21 89 1010.7
20260506001808 32 0 0.0 0.0 0.12 0.38 0.20 89 1010.7
20260506000910 32 123 0.0 0.9 0.13 0.37 0.19 89 1010.7
20260506000007 32 123 0.0 0.9 0.15 0.36 0.18 89 1010.7
20260505235428 32 123 0.0 0.9 0.14 0.35 0.17 89 1010.7
20260505234509 31 0 0.0 0.0 0.13 0.33 0.15 89 1010.7
20260505233613 32 0 0.0 0.0 0.12 0.31 0.13 89 1010.7
20260505232712 31 0 0.0 0.0 0.10 0.29 0.11 89 1010.4
20260505231812 31 0 0.0 0.0 0.07 0.26 0.08 89 1010.4
20260505230913 31 123 0.0 0.9 0.05 0.24 0.06 88 1010.4
20260505230012 31 0 0.0 0.0 0.03 0.21 0.03 88 1010.4
20260505225412 31 0 0.0 0.0 0.03 0.21 0.03 88 1010.4
20260505224512 32 123 0.0 0.9 0.02 0.20 0.02 87 1010.4
20260505223633 32 127 0.0 2.6 0.01 0.19 0.01 87 1010.4
20260505222712 32 157 0.0 3.5 0.01 0.19 0.01 87 1010.8
20260505221812 32 0 0.0 0.0 0.01 0.19 0.01 87 1010.8
20260505220912 32 182 0.0 0.9 0.01 0.19 0.01 86 1010.8
20260505220033 33 181 0.0 1.7 0.00 0.18 0.00 85 1010.8
20260505215412 33 127 0.0 3.5 0.00 0.18 0.00 84 1010.8
20260505214511 34 163 0.9 2.6 0.00 0.18 0.00 83 1010.8
20260505213611 35 88 0.9 3.5 0.00 0.18 0.00 79 1010.8
20260505212711 36 114 0.9 4.3 0.00 0.18 0.00 80 1010.8
20260505211812 36 101 2.6 6.1 0.00 0.18 0.00 81 1010.8
20260505210912 36 89 0.9 5.2 0.00 0.18 0.00 83 1010.8
20260505210012 35 81 0.9 3.5 0.00 0.18 0.00 81 1010.8
20260505205413 35 79 0.9 3.5 0.00 0.18 0.00 80 1010.8
20260505204511 35 93 0.9 4.3 0.00 0.18 0.00 82 1010.8
20260505203611 35 107 1.7 7.0 0.00 0.18 0.00 78 1010.8
20260505202711 36 97 3.5 7.8 0.00 0.18 0.00 77 1010.8
20260505201812 37 92 2.6 7.0 0.00 0.18 0.00 78 1010.8
20260505200911 36 168 1.7 7.0 0.00 0.18 0.00 80 1010.8
20260505200024 36 134 0.9 3.5 0.00 0.18 0.00 78 1010.8
20260505195413 37 103 1.7 6.1 0.00 0.18 0.00 81 1010.8
20260505194532 36 100 2.6 7.8 0.00 0.18 0.00 82 1010.8
20260505193611 36 106 1.7 6.1 0.00 0.18 0.00 79 1010.8
20260505192732 36 94 1.7 6.1 0.00 0.18 0.00 78 1011.3
20260505191812 36 104 2.6 6.1 0.00 0.18 0.00 78 1011.3
20260505190932 36 104 2.6 6.1 0.00 0.18 0.00 79 1011.3
20260505190012 36 95 1.7 5.2 0.00 0.18 0.00 80 1011.3
20260505185411 36 101 3.5 7.8 0.00 0.18 0.00 80 1011.3
20260505184512 36 99 4.3 7.8 0.00 0.18 0.00 80 1011.3
20260505183632 37 97 2.6 7.8 0.00 0.18 0.00 78 1011.3
20260505182714 37 105 3.5 8.7 0.00 0.18 0.00 80 1011.9
20260505181811 36 96 1.7 6.1 0.00 0.18 0.00 81 1011.9
20260505180911 35 102 1.7 5.2 0.00 0.18 0.00 81 1011.9
20260505180011 36 97 1.7 7.0 0.00 0.18 0.00 80 1011.9
20260505175411 35 102 1.7 5.2 0.00 0.18 0.00 82 1011.9
20260505174532 35 111 1.7 6.1 0.00 0.18 0.00 82 1011.9
20260505173611 34 111 1.7 6.1 0.00 0.18 0.00 83 1011.9
20260505172711 35 134 0.9 3.5 0.00 0.18 0.00 83 1012.3
20260505171811 35 87 1.7 5.2 0.00 0.18 0.00 82 1012.3
20260505170911 35 107 2.6 6.1 0.00 0.18 0.00 82 1012.3
20260505170011 35 97 1.7 4.3 0.00 0.18 0.00 84 1012.3
20260505165432 35 94 1.7 7.8 0.00 0.18 0.00 84 1012.3
20260505164511 35 96 2.6 5.2 0.00 0.18 0.00 82 1012.3
20260505163611 34 98 0.9 6.1 0.00 0.18 0.00 82 1012.3
20260505162735 34 89 0.0 2.6 0.00 0.18 0.00 83 1012.5
20260505161811 34 81 0.9 3.5 0.00 0.18 0.00 84 1012.5
20260505160910 34 83 0.9 3.5 0.00 0.18 0.00 84 1012.5
20260505152710 34 98 0.9 3.5 0.00 0.18 0.00 87 1012.9
20260505151810 33 100 0.0 3.5 0.00 0.18 0.00 87 1012.9
20260505150910 34 103 0.9 3.5 0.00 0.18 0.00 87 1012.9